User: anonymous   Login
Location: Newark
(39.6867°N, 100.6772°W)
Time: 02:09:31
(UTC+00:00)
Language:

Courier 1B Rocket - Orbit

View from above orbital plane
View from above orbital plane
View from above satellite
View from above satellite

Ground track
Ground track

The orbit data is extracted from the following two-line orbital elements,

1    59U 60013B   19294.67194635  .00000087  00000-0  18978-5 0  9993
2    59  28.2496   9.9020 0189310  73.6152 288.5116 13.52971613914613
Epoch (UTC): 21 October 2019 16:07:36
Eccentricity: 0.0189310
inclination: 28.2496°
perigee height: 920 km
apogee height: 1202 km
right ascension of ascending node: 9.9020°
argument of perigee: 73.6152°
revolutions per day: 13.52971613
mean anomaly at epoch: 288.5116°
orbit number at epoch: 91461

The dashed part of the orbit path shows where the satellite is in the earth's shadow,  

DLR